Weather History for KMCC - August, 2013

Change the Weather History Date:

Sunday, August 18, 2013

  Actual Average (KMHR) Record (KMHR)
Temperature  
Mean Temperature 81 °F -  
Max Temperature 98 °F 87 °F 98 °F (2004)
Min Temperature 64 °F 56 °F 48 °F (2002)
Cooling Degree Days 16    
Growing Degree Days 31 (Base 50)    
Moisture  
Dew Point 55 °F    
Average Humidity 44    
Maximum Humidity 73    
Minimum Humidity 19    
Precipitation  
Precipitation 0.00 in - - ()
Sea Level Pressure  
Sea Level Pressure 29.82 in    
Wind  
Wind Speed 5 mph (SSE)    
Max Wind Speed 9 mph    
Max Gust Speed -    
Visibility 10 miles    
Events      
Averages and records for this station are not official NWS values.
T = Trace of Precipitation, MM = Missing Value Source: NWS Daily Summary

Daily Weather History Graph

Daily Weather History Graph

Search for Another Location

Airport or City:

Trip Planner

Search our weather history database for the weather conditions in past years. The results will help you decide how hot, cold, wet, or windy it might be!

Date:

Astronomy

Aug. 18, 2013 Rise Set
Actual Time 6:22 AM PDT 7:55 PM PDT
Civil Twilight 5:54 AM PDT 8:23 PM PDT
Nautical Twilight 5:20 AM PDT 8:57 PM PDT
Astronomical Twilight 4:44 AM PDT 9:32 PM PDT
Moon 6:05 PM PDT (8/18) 3:38 AM PDT (8/18)
Length of Visible Light 14h 29m
Length of Day
13h 32m
Waxing Gibbous, 93% of the Moon is Illuminated
Aug 18
Waxing Gibbous
Aug 20
Full
Aug 28
Last Quarter
Sep 5
New
Sep 12
First Quarter

Hourly Weather History & Observations

Time (PDT) Temp. Heat Index Dew Point Humidity Pressure Visibility Wind Dir Wind Speed Gust Speed Precip Events Conditions
12:10 AM 73.4 °F - 55.4 °F 53% 29.83 in 10.0 mi SSE 6.9 mph - N/A   Clear
12:30 AM 73.4 °F - 55.4 °F 53% 29.83 in 10.0 mi SE 8.1 mph - N/A   Clear
12:50 AM 71.6 °F - 55.4 °F 57% 29.83 in 10.0 mi SSE 8.1 mph - N/A   Clear
1:10 AM 71.6 °F - 55.4 °F 57% 29.83 in 10.0 mi SSE 6.9 mph - N/A   Clear
1:30 AM 69.8 °F - 55.4 °F 60% 29.83 in 10.0 mi SSE 6.9 mph - N/A   Clear
1:50 AM 69.8 °F - 55.4 °F 60% 29.83 in 10.0 mi SSE 6.9 mph - N/A   Clear
2:10 AM 68.0 °F - 55.4 °F 64% 29.82 in 10.0 mi South 5.8 mph - N/A   Clear
2:30 AM 69.8 °F - 55.4 °F 60% 29.83 in 10.0 mi South 5.8 mph - N/A   Clear
2:50 AM 68.0 °F - 55.4 °F 64% 29.83 in 10.0 mi South 5.8 mph - N/A   Clear
3:10 AM 68.0 °F - 55.4 °F 64% 29.83 in 10.0 mi SSE 5.8 mph - N/A   Clear
3:30 AM 66.2 °F - 55.4 °F 68% 29.84 in 10.0 mi Calm Calm - N/A   Clear
3:50 AM 66.2 °F - 55.4 °F 68% 29.83 in 10.0 mi Calm Calm - N/A   Clear
4:10 AM 66.2 °F - 55.4 °F 68% 29.84 in 10.0 mi SW 4.6 mph - N/A   Clear
4:30 AM 66.2 °F - 55.4 °F 68% 29.83 in 10.0 mi South 9.2 mph - N/A   Clear
4:50 AM 66.2 °F - 55.4 °F 68% 29.83 in 10.0 mi South 5.8 mph - N/A   Clear
5:10 AM 66.2 °F - 55.4 °F 68% 29.84 in 10.0 mi Calm Calm - N/A   Clear
5:30 AM 66.2 °F - 55.4 °F 68% 29.84 in 10.0 mi ESE 3.5 mph - N/A   Clear
5:50 AM 66.2 °F - 55.4 °F 68% 29.84 in 10.0 mi SE 5.8 mph - N/A   Clear
6:10 AM 64.4 °F - 55.4 °F 73% 29.85 in 10.0 mi SSE 4.6 mph - N/A   Clear
6:30 AM 64.4 °F - 55.4 °F 73% 29.85 in 10.0 mi SE 3.5 mph - N/A   Clear
6:50 AM 66.2 °F - 55.4 °F 68% 29.86 in 10.0 mi East 3.5 mph - N/A   Clear
7:10 AM 68.0 °F - 55.4 °F 64% 29.86 in 10.0 mi East 5.8 mph - N/A   Clear
7:30 AM 68.0 °F - 55.4 °F 64% 29.87 in 10.0 mi East 3.5 mph - N/A   Clear
7:50 AM 68.0 °F - 55.4 °F 64% 29.87 in 10.0 mi ESE 4.6 mph - N/A   Clear
8:10 AM 71.6 °F - 57.2 °F 60% 29.87 in 10.0 mi SE 5.8 mph - N/A   Clear
8:30 AM 71.6 °F - 57.2 °F 60% 29.87 in 10.0 mi ESE 5.8 mph - N/A   Clear
8:50 AM 73.4 °F - 57.2 °F 57% 29.88 in 9.0 mi ESE 3.5 mph - N/A   Clear
9:10 AM 73.4 °F - 57.2 °F 57% 29.88 in 10.0 mi East 3.5 mph - N/A   Clear
9:30 AM 75.2 °F - 57.2 °F 53% 29.88 in 10.0 mi ENE 3.5 mph - N/A   Clear
9:50 AM 77.0 °F - 55.4 °F 47% 29.88 in 10.0 mi Calm Calm - N/A   Clear
10:10 AM 80.6 °F 80.5 °F 55.4 °F 42% 29.87 in 10.0 mi Calm Calm - N/A   Clear
10:30 AM 82.4 °F 81.7 °F 55.4 °F 39% 29.87 in 10.0 mi South 3.5 mph - N/A   Clear
10:50 AM 82.4 °F 81.7 °F 55.4 °F 39% 29.87 in 9.0 mi SSW 3.5 mph - N/A   Clear
11:10 AM 84.2 °F 83.0 °F 55.4 °F 37% 29.87 in 9.0 mi SW 3.5 mph - N/A   Clear
11:30 AM 86.0 °F 84.2 °F 53.6 °F 33% 29.86 in 9.0 mi SE 3.5 mph - N/A   Clear
11:50 AM 87.8 °F 85.7 °F 53.6 °F 31% 29.86 in 8.0 mi South 4.6 mph - N/A   Clear
12:10 PM 89.6 °F 87.3 °F 53.6 °F 29% 29.85 in 7.0 mi Calm Calm - N/A   Clear
12:30 PM 89.6 °F 87.7 °F 55.4 °F 31% 29.85 in 9.0 mi South 4.6 mph - N/A   Clear
12:50 PM 89.6 °F 87.7 °F 55.4 °F 31% 29.84 in 9.0 mi SSW 3.5 mph - N/A   Clear
1:10 PM 91.4 °F 89.4 °F 55.4 °F 29% 29.84 in 9.0 mi Calm Calm - N/A   Clear
1:30 PM 91.4 °F 89.4 °F 55.4 °F 29% 29.84 in 9.0 mi Calm Calm - N/A   Clear
1:50 PM 91.4 °F 89.4 °F 55.4 °F 29% 29.83 in 8.0 mi Calm Calm - N/A   Clear
2:10 PM 93.2 °F 91.3 °F 55.4 °F 28% 29.83 in 9.0 mi SSW 4.6 mph - N/A   Clear
2:30 PM 93.2 °F 91.3 °F 55.4 °F 28% 29.82 in 9.0 mi South 3.5 mph - N/A   Clear
2:50 PM 95.0 °F 93.0 °F 55.4 °F 26% 29.81 in 7.0 mi SSW 3.5 mph - N/A   Clear
3:10 PM 95.0 °F 93.0 °F 55.4 °F 26% 29.80 in 9.0 mi South 4.6 mph - N/A   Clear
3:30 PM 95.0 °F 92.7 °F 53.6 °F 25% 29.79 in 9.0 mi SE 4.6 mph - N/A   Clear
3:50 PM 96.8 °F 94.4 °F 53.6 °F 23% 29.79 in 8.0 mi South 5.8 mph - N/A   Clear
4:10 PM 96.8 °F 94.4 °F 53.6 °F 23% 29.78 in 9.0 mi South 3.5 mph - N/A   Clear
4:30 PM 98.6 °F 96.4 °F 53.6 °F 22% 29.77 in 8.0 mi SSE 5.8 mph - N/A   Clear
4:50 PM 98.6 °F 96.4 °F 53.6 °F 22% 29.77 in 10.0 mi Calm Calm - N/A   Clear
5:10 PM 96.8 °F 94.4 °F 53.6 °F 23% 29.77 in 10.0 mi Calm Calm - N/A   Clear
5:30 PM 98.6 °F 96.4 °F 53.6 °F 22% 29.76 in 9.0 mi Calm Calm - N/A   Clear
5:50 PM 96.8 °F - 51.8 °F 22% 29.75 in 10.0 mi SSE 3.5 mph - N/A   Clear
6:10 PM 98.6 °F - 50.0 °F 19% 29.75 in 8.0 mi SSW 6.9 mph - N/A   Clear
6:30 PM 98.6 °F 96.4 °F 53.6 °F 22% 29.75 in 10.0 mi SSW 5.8 mph - N/A   Clear
6:50 PM 96.8 °F 94.4 °F 53.6 °F 23% 29.74 in 10.0 mi SSW 4.6 mph - N/A   Clear
7:10 PM 95.0 °F 92.7 °F 53.6 °F 25% 29.74 in 10.0 mi WSW 5.8 mph - N/A   Clear
7:30 PM 95.0 °F 92.7 °F 53.6 °F 25% 29.74 in 9.0 mi SW 4.6 mph - N/A   Clear
7:50 PM 93.2 °F 90.8 °F 53.6 °F 26% 29.76 in 10.0 mi Calm Calm - N/A   Clear
8:10 PM 91.4 °F 89.9 °F 57.2 °F 31% 29.75 in 10.0 mi SW 4.6 mph - N/A   Clear
8:30 PM 89.6 °F 88.1 °F 57.2 °F 33% 29.75 in 10.0 mi WSW 6.9 mph - N/A   Clear
8:50 PM 87.8 °F 86.5 °F 57.2 °F 35% 29.75 in 10.0 mi Calm Calm - N/A   Clear
9:10 PM 87.8 °F 86.5 °F 57.2 °F 35% 29.75 in 10.0 mi SW 6.9 mph - N/A   Clear
9:30 PM 87.8 °F 87.1 °F 59.0 °F 38% 29.75 in 10.0 mi SSW 5.8 mph - N/A   Clear
9:50 PM 86.0 °F 84.9 °F 57.2 °F 37% 29.77 in 10.0 mi South 3.5 mph - N/A   Clear
10:10 PM 86.0 °F 84.9 °F 57.2 °F 37% 29.79 in 10.0 mi East 6.9 mph - N/A   Clear
10:30 PM 86.0 °F 85.4 °F 59.0 °F 40% 29.79 in 10.0 mi ENE 4.6 mph - N/A   Clear
10:50 PM 84.2 °F 83.8 °F 59.0 °F 42% 29.77 in 10.0 mi SSE 3.5 mph - N/A   Clear
11:10 PM 84.2 °F 83.8 °F 59.0 °F 42% 29.78 in 10.0 mi Calm Calm - N/A   Clear
11:30 PM 80.6 °F 81.1 °F 59.0 °F 48% 29.78 in 10.0 mi SE 6.9 mph - N/A   Clear
11:50 PM 80.6 °F 81.1 °F 59.0 °F 48% 29.78 in 10.0 mi ESE 4.6 mph - N/A   Clear